Parsons, KS

1:49 PM CDT on March 28, 2017 (GMT -0500)
Tri-City

Weather History for KPPF - November, 2012

Change the Weather History Date:

Sunday, November 4, 2012

  Actual Average Record
Temperature  
Mean Temperature 49 °F -  
Max Temperature 66 °F 59 °F 82 °F (1978)
Min Temperature 32 °F 37 °F 12 °F (1991)
Degree Days  
Heating Degree Days 16    
Moisture  
Dew Point 35 °F    
Average Humidity 66    
Maximum Humidity 92    
Minimum Humidity 34    
Precipitation  
Precipitation 0.00 in - - ()
Sea Level Pressure  
Sea Level Pressure 30.16 in    
Wind  
Wind Speed 1 mph (SSE)    
Max Wind Speed 6 mph    
Max Gust Speed -    
Visibility 10 miles    
Events      
Averages and records for this station are not official NWS values.
T = Trace of Precipitation, MM = Missing Value Source: NWS Daily Summary

Daily Weather History Graph

Daily Weather History Graph

Search for Another Location

Airport or City:

Trip Planner

Search our weather history database for the weather conditions in past years. The results will help you decide how hot, cold, wet, or windy it might be!

Date:

Astronomy

Nov. 04, 2012 Rise Set
Actual Time 6:50 AM CST 5:20 PM CST
Civil Twilight 6:23 AM CST 5:47 PM CST
Nautical Twilight 5:52 AM CST 6:18 PM CST
Astronomical Twilight 5:21 AM CST 6:49 PM CST
Moon 10:00 PM CST (11/4) 11:33 AM CST (11/4)
Length of Visible Light 11h 24m
Length of Day
10h 30m
Waning Gibbous, 72% of the Moon is Illuminated
Nov 4
Waning Gibbous
Nov 6
Last Quarter
Nov 13
New
Nov 20
First Quarter
Nov 28
Full

Hourly Weather History & Observations

Time (CST) Temp. Windchill Dew Point Humidity Pressure Visibility Wind Dir Wind Speed Gust Speed Precip Events Conditions
12:52 AM 37.0 °F - 32.0 °F 82% 30.22 in 10.0 mi Calm Calm - N/A   Clear
1:52 AM 37.9 °F 35.5 °F 32.0 °F 79% 30.21 in 10.0 mi NE 3.5 mph - N/A   Clear
1:52 AM 39.9 °F - 33.1 °F 77% 30.21 in 10.0 mi Calm Calm - N/A   Clear
2:52 AM 37.0 °F - 32.0 °F 82% 30.20 in 10.0 mi Calm Calm - N/A   Clear
3:52 AM 34.0 °F - 30.9 °F 89% 30.20 in 10.0 mi Calm Calm - N/A   Clear
4:52 AM 34.0 °F - 30.9 °F 89% 30.22 in 10.0 mi Calm Calm - N/A   Clear
5:52 AM 35.1 °F - 32.0 °F 89% 30.23 in 10.0 mi Calm Calm - N/A   Clear
6:52 AM 32.0 °F - 30.0 °F 92% 30.25 in 9.0 mi Calm Calm - N/A   Clear
7:52 AM 37.0 °F - 33.1 °F 86% 30.25 in 9.0 mi Calm Calm - N/A   Clear
8:52 AM 48.0 °F - 37.9 °F 68% 30.24 in 10.0 mi Calm Calm - N/A   Clear
9:52 AM 54.0 °F - 37.9 °F 55% 30.24 in 10.0 mi Calm Calm - N/A   Clear
10:52 AM 57.9 °F - 39.0 °F 49% 30.23 in 10.0 mi Calm Calm - N/A   Clear
11:52 AM 61.0 °F - 37.0 °F 41% 30.19 in 10.0 mi South 3.5 mph - N/A   Clear
12:52 PM 64.0 °F - 37.9 °F 38% 30.16 in 10.0 mi Calm Calm - N/A   Clear
1:52 PM 64.0 °F - 37.0 °F 37% 30.12 in 10.0 mi Variable 4.6 mph - N/A   Clear
2:52 PM 66.0 °F - 37.0 °F 34% 30.10 in 10.0 mi Variable 3.5 mph - N/A   Clear
3:52 PM 64.9 °F - 37.0 °F 36% 30.08 in 10.0 mi South 5.8 mph - N/A   Clear
4:52 PM 62.1 °F - 37.0 °F 39% 30.07 in 10.0 mi South 3.5 mph - N/A   Clear
5:52 PM 50.0 °F - 36.0 °F 59% 30.09 in 10.0 mi Calm Calm - N/A   Clear
6:52 PM 46.0 °F - 36.0 °F 68% 30.10 in 10.0 mi Calm Calm - N/A   Clear
7:52 PM 45.0 °F - 36.0 °F 71% 30.09 in 10.0 mi Calm Calm - N/A   Clear
8:52 PM 48.9 °F - 37.9 °F 66% 30.07 in 10.0 mi Calm Calm - N/A   Clear
9:52 PM 48.0 °F - 39.9 °F 74% 30.08 in 10.0 mi Calm Calm - N/A   Clear
10:52 PM 48.9 °F - 41.0 °F 74% 30.06 in 10.0 mi Calm Calm - N/A   Mostly Cloudy